Live Position
Loading 3D Globe...
About ANTELSAT
Group: 3 satellites
Description loading...
Upcoming Passes
Passes for default location (London). Set your location on the main map for personalized predictions.
Altitude History
Loading altitude history...
No altitude history available
Two-Line Element Set
1 40034U 14033AA 26109.26571455 .00002848 00000-0 29287-3 0 9998
2 40034 97.7711 265.9497 0042361 250.8271 108.8360 14.90471491637033
Epoch: Apr 19, 2026 •
Age: 14 hours
Current Status
Altitude 584.6 km
Velocity 7.58 km/s
Sub-Earth Point -27.27°S,
68.4°W
Launch Date Jun 19, 2014
Age 11.8 years
Type other
Technical Details
Classification Payload
Mass 2.00 kg
Dry Mass 2.00 kg
Total Mass 2.00 kg
Length 0.20 m
Diameter 0.10 m
Span 0.20 m
Shape Box+boom
Manufacturer FING
Bus Type Cubesat 2U
Phase Status In Orbit
Owner/State FING/ANTEL/UY
Most Searched
Loading...